Flag for U.S.A. Weather past 2 weeks in Passaic, New Jersey, U.S.A.

Now
70 °F

Clear.


Feels Like: 75 °F
Forecast: 68 / 86 °F
Wind: No wind

Location: Teterboro Airport

Current Time: Aug 5, 2015 at 7:24:48 AM

Latest Report: Aug 5, 2015 at 6:51 AM


Visibility: 10 mi

Pressure: 29.90 "Hg

Humidity: 66%

Dew point: 58 °F

Location of PassaicLocation

Historic Weather in Passaic — Graph

°F

Passaic temperature yesterday

Maximum temperature yesterday: 91 °F (at 1:51 PM)
Minimum temperature yesterday: 70 °F (at 5:51 AM)
Average temperature yesterday: 81 °F

Past Weeks' High & Low Weather Summary

 TemperatureHumidityPressure
High94 °F (Jul 28, 3:51 PM)91% (Jul 31, 1:51 AM)30.02 "Hg (Jul 31, 1:51 AM)
Low65 °F (Jul 23, 3:51 AM)24% (Jul 31, 4:51 PM)29.55 "Hg (Jul 21, 5:51 PM)
Average80 °F52%29.87 "Hg
* Reported Jul 21 5:51 AM — Aug 5 5:51 AM, Passaic, Weather by CustomWeather, © 2015

Note: Actual official high and low records may vary slightly from our data, if they occured in-between our weather recording intervals... More about our weather records

Advertising

Passaic weather history for previous 24 hours

 ConditionsComfort  
Time TempWeatherWind HumidityBarometerVisibility
5:51 AM
Wed, Aug 5
69 °FClear.No wind68%29.89 "Hg10 mi
4:51 AM69 °FClear.No wind66%29.88 "Hg10 mi
3:51 AM70 °FClear.No wind64%29.89 "Hg10 mi
2:51 AM70 °FClear.No wind64%29.90 "Hg10 mi
1:51 AM72 °FClear.3 mph59%29.90 "Hg10 mi
12:51 AM74 °FClear.No wind52%29.90 "Hg10 mi
11:51 PM
Tue, Aug 4
78 °FClear.No wind45%29.89 "Hg10 mi
10:51 PM78 °FClear.3 mph43%29.89 "Hg10 mi
9:51 PM80 °FClear.7 mph36%29.89 "Hg10 mi
8:51 PM83 °FSunny.5 mph32%29.87 "Hg10 mi
7:51 PM84 °FSunny.9 mph31%29.85 "Hg10 mi
6:51 PM87 °FSunny.13 mph31%29.84 "Hg10 mi
5:51 PM89 °FPassing clouds.17 mph28%29.83 "Hg10 mi
4:51 PM89 °FPassing clouds.17 mph26%29.83 "Hg10 mi
3:51 PM90 °FPassing clouds.15 mph28%29.82 "Hg10 mi
2:51 PM90 °FSunny.18 mph25%29.83 "Hg10 mi
1:51 PM91 °FPassing clouds.13 mph33%29.83 "Hg10 mi
12:51 PM90 °FSunny.15 mph38%29.82 "Hg10 mi
11:51 AM86 °FPassing clouds.10 mph46%29.83 "Hg10 mi
10:51 AM83 °FSunny.12 mph53%29.84 "Hg10 mi
9:51 AM81 °FSunny.7 mph54%29.83 "Hg10 mi
8:51 AM74 °FSunny.5 mph74%29.84 "Hg10 mi
7:51 AM71 °FSunny.5 mph81%29.85 "Hg10 mi
Weather by CustomWeather, © 2015

See weather overviewHow to use our weather pages